| time (UTC) | temp F | wind direction | speed MPH | gust MPH | rain 1hr in | rain 24hr in | rain mn in | humidity % | barometer mb |
| 20260510183031 | 62 | 18 | 2.0 | 10.0 | 0.00 | 0.00 | 0.00 | 34 | 1019.5 |
| 20260510181528 | 62 | 298 | 2.0 | 8.0 | 0.00 | 0.00 | 0.00 | 36 | 1019.5 |
| 20260510180026 | 62 | 323 | 2.0 | 9.0 | 0.00 | 0.00 | 0.00 | 38 | 1019.4 |
| 20260510174526 | 62 | 5 | 2.0 | 5.0 | 0.00 | 0.00 | 0.00 | 36 | 1019.5 |
| 20260510173023 | 62 | 342 | 1.0 | 5.0 | 0.00 | 0.00 | 0.00 | 36 | 1019.6 |
| 20260510171522 | 61 | 307 | 4.0 | 11.0 | 0.00 | 0.00 | 0.00 | 37 | 1019.9 |
| 20260510170020 | 61 | 316 | 4.0 | 8.0 | 0.00 | 0.00 | 0.00 | 36 | 1019.9 |
| 20260510164518 | 60 | 303 | 2.0 | 11.0 | 0.00 | 0.00 | 0.00 | 38 | 1019.8 |
| 20260510163015 | 61 | 331 | 0.0 | 6.0 | 0.00 | 0.00 | 0.00 | 40 | 1019.7 |
| 20260510161513 | 60 | 296 | 2.0 | 5.0 | 0.00 | 0.00 | 0.00 | 38 | 1019.5 |
| 20260510160011 | 60 | 338 | 2.0 | 6.0 | 0.00 | 0.00 | 0.00 | 39 | 1019.4 |
| 20260510154506 | 59 | 317 | 2.0 | 5.0 | 0.00 | 0.00 | 0.00 | 39 | 1019.3 |
| 20260510153004 | 60 | 183 | 0.0 | 3.0 | 0.00 | 0.00 | 0.00 | 45 | 1019.3 |
| 20260510151559 | 59 | 173 | 1.0 | 6.0 | 0.00 | 0.00 | 0.00 | 43 | 1019.3 |
| 20260510150057 | 59 | 160 | 2.0 | 6.0 | 0.00 | 0.00 | 0.00 | 43 | 1019.4 |
| 20260510144606 | 58 | 165 | 0.0 | 3.0 | 0.00 | 0.00 | 0.00 | 43 | 1019.3 |
| 20260510143101 | 57 | 171 | 1.0 | 6.0 | 0.00 | 0.00 | 0.00 | 42 | 1019.3 |
| 20260510141542 | 57 | 149 | 0.0 | 4.0 | 0.00 | 0.00 | 0.00 | 46 | 1019.1 |
| 20260510140037 | 57 | 108 | 0.0 | 2.0 | 0.00 | 0.00 | 0.00 | 45 | 1019.0 |
| 20260510134534 | 56 | 100 | 0.0 | 3.0 | 0.00 | 0.00 | 0.00 | 46 | 1018.9 |
| 20260510133028 | 55 | 72 | 0.0 | 4.0 | 0.00 | 0.00 | 0.00 | 47 | 1018.6 |
| 20260510131524 | 53 | 134 | 1.0 | 7.0 | 0.00 | 0.00 | 0.00 | 47 | 1018.6 |
| 20260510130020 | 53 | 107 | 1.0 | 4.0 | 0.00 | 0.00 | 0.00 | 53 | 1018.3 |
| 20260510124515 | 51 | 101 | 0.0 | 0.0 | 0.00 | 0.00 | 0.00 | 60 | 1018.3 |
| 20260510123011 | 48 | 97 | 0.0 | 2.0 | 0.00 | 0.00 | 0.00 | 68 | 1018.2 |
| 20260510121507 | 46 | 95 | 0.0 | 0.0 | 0.00 | 0.00 | 0.00 | 73 | 1017.9 |
| 20260510120105 | 44 | 95 | 0.0 | 0.0 | 0.00 | 0.00 | 0.00 | 76 | 1017.6 |
| 20260510114505 | 42 | 95 | 0.0 | 0.0 | 0.00 | 0.00 | 0.00 | 79 | 1017.4 |
| 20260510113001 | 41 | 95 | 0.0 | 0.0 | 0.00 | 0.00 | 0.00 | 80 | 1017.2 |
| 20260510111608 | 41 | 95 | 0.0 | 2.0 | 0.00 | 0.00 | 0.00 | 81 | 1016.9 |
| 20260510110057 | 40 | 95 | 0.0 | 0.0 | 0.00 | 0.00 | 0.00 | 80 | 1017.0 |
| 20260510104612 | 40 | 95 | 0.0 | 0.0 | 0.00 | 0.00 | 0.00 | 78 | 1016.7 |
| 20260510103051 | 41 | 95 | 0.0 | 0.0 | 0.00 | 0.00 | 0.00 | 76 | 1016.3 |
| 20260510101549 | 42 | 95 | 0.0 | 0.0 | 0.00 | 0.00 | 0.00 | 74 | 1016.2 |
| 20260510100045 | 43 | 95 | 0.0 | 0.0 | 0.00 | 0.00 | 0.00 | 72 | 1016.1 |
| 20260510094543 | 43 | 95 | 0.0 | 0.0 | 0.00 | 0.00 | 0.00 | 71 | 1016.0 |
| 20260510093040 | 44 | 95 | 0.0 | 0.0 | 0.00 | 0.00 | 0.00 | 68 | 1015.6 |
| 20260510091539 | 45 | 95 | 0.0 | 0.0 | 0.00 | 0.00 | 0.00 | 67 | 1015.4 |
| 20260510090038 | 46 | 95 | 0.0 | 0.0 | 0.00 | 0.00 | 0.00 | 65 | 1015.6 |
| 20260510084537 | 47 | 95 | 0.0 | 1.0 | 0.00 | 0.00 | 0.00 | 64 | 1015.5 |
| 20260510083034 | 47 | 99 | 0.0 | 2.0 | 0.00 | 0.00 | 0.00 | 64 | 1015.4 |
| 20260510081532 | 48 | 92 | 0.0 | 4.0 | 0.00 | 0.00 | 0.00 | 63 | 1015.1 |
| 20260510080035 | 48 | 82 | 0.0 | 6.0 | 0.00 | 0.00 | 0.00 | 65 | 1014.8 |
| 20260510074532 | 47 | 340 | 0.0 | 5.0 | 0.00 | 0.00 | 0.00 | 71 | 1014.3 |
| 20260510073023 | 46 | 24 | 0.0 | 0.0 | 0.00 | 0.00 | 0.00 | 78 | 1014.1 |
| 20260510071524 | 45 | 26 | 0.0 | 0.0 | 0.00 | 0.00 | 0.00 | 81 | 1013.9 |
| 20260510070019 | 44 | 26 | 0.0 | 4.0 | 0.00 | 0.00 | 0.00 | 84 | 1013.7 |
| 20260510064517 | 45 | 42 | 0.0 | 0.0 | 0.00 | 0.00 | 0.00 | 81 | 1013.5 |
| 20260510063014 | 45 | 42 | 0.0 | 0.0 | 0.00 | 0.00 | 0.00 | 80 | 1013.3 |
| 20260510061523 | 46 | 42 | 0.0 | 0.0 | 0.00 | 0.00 | 0.00 | 78 | 1013.2 |
| 20260510060016 | 47 | 42 | 0.0 | 0.0 | 0.00 | 0.00 | 0.00 | 77 | 1013.1 |
| 20260510054506 | 47 | 42 | 0.0 | 0.0 | 0.00 | 0.00 | 0.00 | 76 | 1013.1 |
| 20260510053003 | 48 | 42 | 0.0 | 2.0 | 0.00 | 0.00 | 0.00 | 74 | 1012.9 |
| 20260510051701 | 48 | 60 | 0.0 | 3.0 | 0.00 | 0.00 | 0.00 | 72 | 1012.8 |
| 20260510044556 | 50 | 61 | 0.0 | 2.0 | 0.00 | 0.00 | 0.00 | 68 | 1012.2 |
| 20260510043139 | 51 | 61 | 0.0 | 0.0 | 0.00 | 0.00 | 0.00 | 66 | 1011.9 |
| 20260510041554 | 52 | 61 | 0.0 | 0.0 | 0.00 | 0.00 | 0.00 | 63 | 1011.5 |
| 20260510040050 | 54 | 61 | 0.0 | 1.0 | 0.00 | 0.00 | 0.00 | 60 | 1011.5 |
| 20260510034553 | 55 | 61 | 0.0 | 0.0 | 0.00 | 0.00 | 0.00 | 57 | 1011.2 |
| 20260510033050 | 56 | 61 | 1.0 | 2.0 | 0.00 | 0.00 | 0.00 | 56 | 1011.1 |
| 20260510031646 | 57 | 61 | 0.0 | 3.0 | 0.00 | 0.00 | 0.00 | 55 | 1011.0 |
| 20260510030043 | 58 | 56 | 1.0 | 4.0 | 0.00 | 0.00 | 0.00 | 53 | 1010.8 |
| 20260510024543 | 60 | 337 | 0.0 | 2.0 | 0.00 | 0.00 | 0.00 | 49 | 1010.1 |
| 20260510023047 | 60 | 337 | 1.0 | 4.0 | 0.00 | 0.00 | 0.00 | 47 | 1009.8 |
| 20260510021542 | 61 | 336 | 1.0 | 4.0 | 0.00 | 0.00 | 0.00 | 45 | 1009.4 |
| 20260510020033 | 62 | 350 | 1.0 | 4.0 | 0.00 | 0.00 | 0.00 | 44 | 1008.8 |
| 20260510014532 | 63 | 346 | 2.0 | 6.0 | 0.00 | 0.00 | 0.00 | 44 | 1008.5 |
| 20260510013027 | 64 | 336 | 2.0 | 5.0 | 0.00 | 0.00 | 0.00 | 43 | 1008.2 |
| 20260510011526 | 65 | 340 | 1.0 | 6.0 | 0.00 | 0.00 | 0.00 | 43 | 1007.8 |
| 20260510010026 | 66 | 325 | 4.0 | 15.0 | 0.00 | 0.00 | 0.00 | 41 | 1007.6 |
| 20260510004522 | 67 | 342 | 3.0 | 9.0 | 0.00 | 0.00 | 0.00 | 42 | 1007.1 |
| 20260510003020 | 68 | 335 | 4.0 | 9.0 | 0.00 | 0.00 | 0.00 | 39 | 1006.9 |
| 20260510001518 | 69 | 350 | 4.0 | 10.0 | 0.00 | 0.00 | 0.00 | 38 | 1006.5 |
| 20260510000017 | 70 | 286 | 5.0 | 15.0 | 0.00 | 0.00 | 0.00 | 38 | 1006.2 |
| 20260509234519 | 70 | 316 | 5.0 | 13.0 | 0.00 | 0.00 | 0.00 | 36 | 1006.1 |
| 20260509233016 | 70 | 315 | 6.0 | 12.0 | 0.00 | 0.00 | 0.00 | 38 | 1005.8 |
| 20260509231515 | 70 | 292 | 2.0 | 9.0 | 0.00 | 0.00 | 0.00 | 40 | 1005.7 |
| 20260509230013 | 71 | 306 | 2.0 | 10.0 | 0.00 | 0.00 | 0.00 | 45 | 1005.4 |
| 20260509224512 | 71 | 324 | 3.0 | 9.0 | 0.00 | 0.00 | 0.00 | 41 | 1005.2 |
| 20260509223012 | 72 | 286 | 5.0 | 12.0 | 0.00 | 0.00 | 0.00 | 40 | 1005.1 |
| 20260509221511 | 71 | 305 | 4.0 | 9.0 | 0.00 | 0.00 | 0.00 | 43 | 1005.0 |
| 20260509220010 | 71 | 297 | 3.0 | 8.0 | 0.00 | 0.00 | 0.00 | 42 | 1004.9 |
| 20260509214510 | 72 | 269 | 2.0 | 11.0 | 0.00 | 0.00 | 0.00 | 42 | 1004.6 |
| 20260509213009 | 72 | 331 | 2.0 | 17.0 | 0.00 | 0.00 | 0.00 | 40 | 1004.7 |
| 20260509211510 | 73 | 298 | 4.0 | 11.0 | 0.00 | 0.00 | 0.00 | 38 | 1004.4 |
| 20260509210008 | 73 | 344 | 6.0 | 13.0 | 0.00 | 0.00 | 0.00 | 36 | 1004.5 |
| 20260509204507 | 74 | 267 | 4.0 | 12.0 | 0.00 | 0.00 | 0.00 | 37 | 1004.2 |
| 20260509203019 | 73 | 311 | 3.0 | 13.0 | 0.00 | 0.00 | 0.00 | 38 | 1004.2 |
| 20260509201505 | 72 | 306 | 3.0 | 13.0 | 0.00 | 0.00 | 0.00 | 38 | 1004.3 |
| 20260509200005 | 72 | 312 | 5.0 | 11.0 | 0.00 | 0.00 | 0.00 | 35 | 1004.3 |
| 20260509194505 | 71 | 305 | 5.0 | 12.0 | 0.00 | 0.00 | 0.00 | 35 | 1004.5 |
| 20260509193004 | 71 | 346 | 4.0 | 12.0 | 0.00 | 0.00 | 0.00 | 36 | 1004.3 |
| 20260509191502 | 72 | 296 | 3.0 | 13.0 | 0.00 | 0.00 | 0.00 | 37 | 1004.4 |
| 20260509190001 | 72 | 270 | 3.0 | 17.0 | 0.00 | 0.00 | 0.00 | 37 | 1004.4 |
| 20260509184600 | 74 | 278 | 4.0 | 11.0 | 0.00 | 0.00 | 0.00 | 34 | 1004.2 |